TimeMDT,TemperatureF,Dew PointF,Humidity,Sea Level PressureIn,VisibilityMPH,Wind Direction,Wind SpeedMPH,Gust SpeedMPH,PrecipitationIn,Events,Conditions,WindDirDegrees,DateUTC
12:53 AM,35.1,21.0,57,30.08,10.0,Calm,Calm,-,N/A,,Clear,0,2013-05-04 06:53:00
1:53 AM,30.9,19.9,64,30.06,10.0,SSW,5.8,-,N/A,,Clear,210,2013-05-04 07:53:00
2:53 AM,28.9,19.9,69,30.06,10.0,SSW,8.1,-,N/A,,Clear,210,2013-05-04 08:53:00
3:53 AM,28.9,19.9,69,30.06,10.0,SSW,4.6,-,N/A,,Clear,200,2013-05-04 09:53:00
4:53 AM,30.9,19.0,61,30.06,10.0,Calm,Calm,-,N/A,,Clear,0,2013-05-04 10:53:00
5:53 AM,26.1,19.0,75,30.07,10.0,SW,3.5,-,N/A,,Clear,230,2013-05-04 11:53:00
6:53 AM,33.1,21.0,61,30.09,10.0,Calm,Calm,-,N/A,,Clear,0,2013-05-04 12:53:00
7:53 AM,39.9,23.0,51,30.10,10.0,ENE,3.5,-,N/A,,Clear,60,2013-05-04 13:53:00
8:53 AM,46.0,21.9,39,30.10,10.0,East,4.6,-,N/A,,Clear,90,2013-05-04 14:53:00
9:53 AM,51.1,21.0,31,30.10,10.0,East,5.8,-,N/A,,Clear,90,2013-05-04 15:53:00
10:53 AM,55.9,19.9,25,30.09,10.0,NNE,12.7,16.1,N/A,,Clear,30,2013-05-04 16:53:00
11:53 AM,60.1,19.0,20,30.07,10.0,NE,15.0,18.4,N/A,,Clear,40,2013-05-04 17:53:00
12:53 PM,63.0,19.0,18,30.06,10.0,North,12.7,26.5,N/A,,Clear,360,2013-05-04 18:53:00
1:53 PM,64.9,17.1,16,30.05,10.0,NNE,19.6,23.0,N/A,,Clear,30,2013-05-04 19:53:00
2:53 PM,66.0,16.0,15,30.04,10.0,North,10.4,26.5,N/A,,Clear,360,2013-05-04 20:53:00
3:53 PM,66.9,14.0,13,30.03,10.0,NNE,16.1,21.9,N/A,,Clear,30,2013-05-04 21:53:00
4:53 PM,66.0,12.9,13,30.02,10.0,NNE,17.3,25.3,N/A,,Clear,20,2013-05-04 22:53:00
5:53 PM,64.0,12.9,14,30.05,10.0,NNE,15.0,28.8,N/A,,Clear,30,2013-05-04 23:53:00
6:53 PM,61.0,12.0,15,30.06,10.0,NE,15.0,-,N/A,,Clear,40,2013-05-05 00:53:00
7:53 PM,55.0,12.0,18,30.08,10.0,NE,11.5,-,N/A,,Clear,50,2013-05-05 01:53:00
8:53 PM,48.0,10.0,22,30.12,10.0,ENE,6.9,-,N/A,,Clear,60,2013-05-05 02:53:00
9:53 PM,46.0,8.1,21,30.14,10.0,ENE,8.1,-,N/A,,Clear,70,2013-05-05 03:53:00
10:53 PM,41.0,10.0,28,30.15,10.0,ENE,5.8,-,N/A,,Clear,60,2013-05-05 04:53:00
11:53 PM,37.9,10.0,32,30.17,10.0,Calm,Calm,-,N/A,,Clear,0,2013-05-05 05:53:00